Location: Fernhill
(41.0167°S, 175.6333°E)
Time: 01:38:34
(UTC+00:00)

Cosmos 841 Rocket - Pass Details

Date: 08 November 2025
Orbit: 742 x 768 km, 74.0° (Epoch: 12 December)

Event Time Altitude Azimuth Distance (km) Brightness Sun altitude
Exits shadow 11:27:17 47° 213° (SSW) 1,016 4.3 -31.7°
Drops below altitude 10° 11:31:31 10° 170° (S) 2,311 6.8 -31.9°
Sets 11:33:57 0° 165° (SSE) 3,239 7.7 -31.9°
